Weather History for Tampa Macdill AFB, FL

Change the Weather History Date:

Tuesday, December 11, 2012

  Actual Average Record
Temperature  
Mean Temperature 70 °F -  
Max Temperature 76 °F 71 °F 84 °F (2013)
Min Temperature 64 °F 54 °F 44 °F (2010)
Cooling Degree Days 5    
Growing Degree Days 20 (Base 50)    
Moisture  
Dew Point 69 °F    
Average Humidity 100    
Maximum Humidity 100    
Minimum Humidity 91    
Precipitation  
Precipitation 0.03 in - - ()
Sea Level Pressure  
Sea Level Pressure 29.95 in    
Wind  
Wind Speed 4 mph (WSW)    
Max Wind Speed 12 mph    
Max Gust Speed -    
Visibility 5 miles    
Events Fog , Rain    
Averages and records for this station are not official NWS values.
T = Trace of Precipitation, MM = Missing Value Source: NWS Daily Summary

Daily Weather History Graph

Daily Weather History Graph

Search for Another Location

Airport:

Trip Planner

Search our weather history database for the weather conditions in past years. The results will help you decide how hot, cold, wet, or windy it might be!

Date:

Astronomy

Dec. 11, 2012 Rise Set
Actual Time 7:11 AM EST 5:35 PM EST
Civil Twilight 6:45 AM EST 6:01 PM EST
Nautical Twilight 6:16 AM EST 6:30 PM EST
Astronomical Twilight 5:47 AM EST 6:59 PM EST
Moon 5:09 AM EST (12/11) 4:10 PM EST (12/11)
Length of Visible Light 11h 15m
Length of Day
10h 24m
Waning Crescent, 4% of the Moon is Illuminated
Dec 11
Waning Crescent
Dec 13
New
Dec 20
First Quarter
Dec 28
Full
Jan 4
Last Quarter

Hourly Weather History & Observations

Time (EST) Temp. Dew Point Humidity Pressure Visibility Wind Dir Wind Speed Gust Speed Precip Events Conditions
12:55 AM 68.5 °F 68.5 °F 100% 29.91 in 10.0 mi West 4.6 mph - N/A   Scattered Clouds
1:25 AM 69.8 °F 69.8 °F 100% 29.92 in 10.0 mi WSW 9.2 mph - N/A   Mostly Cloudy
1:27 AM 69.8 °F 69.8 °F 100% 29.92 in 10.0 mi WSW 6.9 mph - N/A   Mostly Cloudy
1:28 AM 69.8 °F 69.8 °F 100% 29.92 in 10.0 mi WSW 6.9 mph - N/A   Mostly Cloudy
1:34 AM 69.8 °F 69.8 °F 100% 29.91 in 10.0 mi West 5.8 mph - N/A   Mostly Cloudy
1:40 AM 69.8 °F 69.8 °F 100% 29.91 in 10.0 mi WSW 5.8 mph - N/A   Scattered Clouds
1:42 AM 69.8 °F 69.8 °F 100% 29.91 in 10.0 mi WSW 4.6 mph - N/A   Mostly Cloudy
1:54 AM 69.8 °F 69.8 °F 100% 29.91 in 10.0 mi WSW 3.5 mph - N/A   Scattered Clouds
1:55 AM 69.1 °F 69.1 °F 100% 29.91 in 10.0 mi WSW 3.5 mph - N/A   Scattered Clouds
2:20 AM 68.0 °F 68.0 °F 100% 29.91 in 3.0 mi WSW 3.5 mph - N/A   Clear
2:21 AM 68.0 °F 68.0 °F 100% 29.91 in 3.0 mi WSW 4.6 mph - N/A   Clear
2:26 AM 68.0 °F 68.0 °F 100% 29.91 in 4.0 mi WSW 5.8 mph - N/A   Clear
2:27 AM 68.0 °F 68.0 °F 100% 29.91 in 4.0 mi WSW 5.8 mph - N/A   Clear
2:47 AM 68.0 °F 68.0 °F 100% 29.91 in 6.0 mi WSW 3.5 mph - N/A   Mostly Cloudy
2:55 AM 68.7 °F 68.7 °F 100% 29.90 in 7.0 mi SW 4.6 mph - N/A   Mostly Cloudy
3:12 AM 69.8 °F 69.8 °F 100% 29.91 in 4.0 mi SW 5.8 mph - N/A   Mostly Cloudy
3:13 AM 69.8 °F 69.8 °F 100% 29.91 in 4.0 mi SW 5.8 mph - N/A   Mostly Cloudy
3:16 AM 69.8 °F 69.8 °F 100% 29.91 in 4.0 mi WSW 4.6 mph - N/A   Scattered Clouds
3:24 AM 69.8 °F 69.8 °F 100% 29.91 in 5.0 mi SW 4.6 mph - N/A   Mostly Cloudy
3:30 AM 69.8 °F 69.8 °F 100% 29.91 in 6.0 mi WSW 4.6 mph - N/A   Mostly Cloudy
3:33 AM 69.8 °F 69.8 °F 100% 29.91 in 6.0 mi WSW 4.6 mph - N/A   Mostly Cloudy
3:35 AM 69.8 °F 69.8 °F 100% 29.91 in 7.0 mi SW 5.8 mph - N/A   Mostly Cloudy
3:52 AM 69.8 °F 69.8 °F 100% 29.91 in 4.0 mi WSW 6.9 mph - N/A   Overcast
3:55 AM 69.4 °F 69.4 °F 100% 29.92 in 3.0 mi WSW 8.1 mph - N/A   Overcast
3:56 AM 69.8 °F 69.8 °F 100% 29.92 in 2.5 mi WSW 8.1 mph - N/A   Overcast
3:59 AM 69.8 °F 69.8 °F 100% 29.92 in 1.8 mi WSW 9.2 mph - N/A   Overcast
4:01 AM 69.8 °F 69.8 °F 100% 29.92 in 1.5 mi WSW 9.2 mph - N/A   Overcast
4:04 AM 69.8 °F 69.8 °F 100% 29.92 in 1.2 mi WSW 5.8 mph - N/A   Overcast
4:07 AM 69.8 °F 69.8 °F 100% 29.92 in 1.5 mi WSW 6.9 mph - N/A   Overcast
4:11 AM 69.8 °F 69.8 °F 100% 29.92 in 1.8 mi WSW 6.9 mph - N/A   Overcast
4:12 AM 69.8 °F 69.8 °F 100% 29.92 in 2.0 mi WSW 6.9 mph - N/A   Overcast
4:15 AM 69.8 °F 69.8 °F 100% 29.92 in 2.5 mi WSW 9.2 mph - N/A   Overcast
4:16 AM 69.8 °F 69.8 °F 100% 29.92 in 3.0 mi WSW 9.2 mph - N/A   Overcast
4:20 AM 69.8 °F 69.8 °F 100% 29.92 in 5.0 mi SW 8.1 mph - N/A   Overcast
4:28 AM 69.8 °F 69.8 °F 100% 29.92 in 8.0 mi WSW 10.4 mph - N/A   Overcast
4:29 AM 69.8 °F 69.8 °F 100% 29.92 in 8.0 mi WSW 9.2 mph - N/A   Overcast
4:48 AM 69.8 °F 69.8 °F 100% 29.91 in 10.0 mi Calm Calm - N/A   Overcast
4:55 AM 68.7 °F 68.7 °F 100% 29.91 in 10.0 mi Calm Calm - N/A   Overcast
5:28 AM 68.0 °F 68.0 °F 100% 29.92 in 9.0 mi Calm Calm - N/A   Mostly Cloudy
5:31 AM 68.0 °F 68.0 °F 100% 29.92 in 9.0 mi Calm Calm - N/A   Mostly Cloudy
5:38 AM 68.0 °F 68.0 °F 100% 29.92 in 10.0 mi Calm Calm - N/A   Mostly Cloudy
5:43 AM 68.0 °F 68.0 °F 100% 29.91 in 10.0 mi Calm Calm - N/A   Mostly Cloudy
5:50 AM 68.0 °F 68.0 °F 100% 29.92 in 10.0 mi Calm Calm - N/A   Mostly Cloudy
5:51 AM 68.0 °F 68.0 °F 100% 29.92 in 10.0 mi Calm Calm - N/A   Scattered Clouds
5:55 AM 68.5 °F 68.5 °F 100% 29.92 in 10.0 mi Calm Calm - N/A   Scattered Clouds
6:01 AM 68.0 °F 68.0 °F 100% 29.92 in 8.0 mi Calm Calm - N/A   Partly Cloudy
6:08 AM 68.0 °F 68.0 °F 100% 29.93 in 2.5 mi Calm Calm - N/A   Clear
6:09 AM 68.0 °F 68.0 °F 100% 29.93 in 1.8 mi Calm Calm - N/A   Clear
6:11 AM 68.0 °F 68.0 °F 100% 29.93 in 1.2 mi Calm Calm - N/A   Clear
6:13 AM 68.0 °F 68.0 °F 100% 29.93 in 1.0 mi Calm Calm - N/A   Clear
6:14 AM 68.0 °F 68.0 °F 100% 29.93 in 1.0 mi Calm Calm - N/A   Clear
6:15 AM 68.0 °F 68.0 °F 100% 29.93 in 0.8 mi Calm Calm - N/A   Clear
6:17 AM 68.0 °F 68.0 °F 100% 29.93 in 0.8 mi Calm Calm - N/A   Clear
6:22 AM 68.0 °F 68.0 °F 100% 29.94 in 0.5 mi Calm Calm - N/A Fog Fog
6:24 AM 68.0 °F 68.0 °F 100% 29.94 in 0.8 mi Calm Calm - N/A   Clear
6:32 AM 66.2 °F 66.2 °F 100% 29.95 in 0.8 mi Calm Calm - N/A   Clear
6:34 AM 66.2 °F 66.2 °F 100% 29.95 in 0.8 mi Calm Calm - N/A   Clear
6:36 AM 66.2 °F 66.2 °F 100% 29.95 in 1.0 mi Calm Calm - N/A   Clear
6:38 AM 66.2 °F 66.2 °F 100% 29.95 in 1.2 mi Calm Calm - N/A   Clear
6:39 AM 66.2 °F 66.2 °F 100% 29.95 in 1.8 mi Calm Calm - N/A   Clear
6:40 AM 66.2 °F 66.2 °F 100% 29.95 in 2.5 mi Calm Calm - N/A   Clear
6:41 AM 66.2 °F 66.2 °F 100% 29.95 in 3.0 mi Calm Calm - N/A   Clear
6:44 AM 66.2 °F 66.2 °F 100% 29.95 in 2.5 mi Calm Calm - N/A   Clear
6:47 AM 66.2 °F 66.2 °F 100% 29.94 in 1.5 mi Calm Calm - N/A   Clear
6:48 AM 66.2 °F 66.2 °F 100% 29.94 in 1.2 mi Calm Calm - N/A   Clear
6:49 AM 66.2 °F 66.2 °F 100% 29.94 in 1.0 mi Calm Calm - N/A   Clear
6:50 AM 66.2 °F 66.2 °F 100% 29.94 in 0.8 mi Calm Calm - N/A   Clear
6:51 AM 66.2 °F 66.2 °F 100% 29.94 in 0.8 mi Calm Calm - N/A   Clear
6:52 AM 66.2 °F 66.2 °F 100% 29.94 in 0.8 mi Calm Calm - N/A   Clear
6:53 AM 66.2 °F 66.2 °F 100% 29.94 in 0.5 mi Calm Calm - N/A Fog Fog
6:55 AM 66.4 °F 66.4 °F 100% 29.94 in 0.5 mi Calm Calm - N/A Fog Fog
7:03 AM 66.2 °F 66.2 °F 100% 29.96 in 0.2 mi Calm Calm - N/A Fog Fog
7:10 AM 66.2 °F 66.2 °F 100% 29.96 in 0.2 mi Calm Calm - N/A Fog Fog
7:12 AM 66.2 °F 66.2 °F 100% 29.96 in 0.2 mi Calm Calm - N/A Fog Fog
7:16 AM 66.2 °F 66.2 °F 100% 29.95 in 0.5 mi Calm Calm - N/A Fog Fog
7:20 AM 66.2 °F 66.2 °F 100% 29.95 in 0.8 mi Calm Calm - N/A   Clear
7:26 AM 66.2 °F 66.2 °F 100% 29.96 in 1.0 mi Calm Calm - N/A   Clear
7:28 AM 66.2 °F 66.2 °F 100% 29.95 in 0.8 mi Calm Calm - N/A   Clear
7:31 AM 66.2 °F 66.2 °F 100% 29.95 in 0.5 mi Calm Calm - N/A Fog Fog
7:34 AM 66.2 °F 66.2 °F 100% 29.95 in 0.5 mi Calm Calm - N/A Fog Fog
7:35 AM 66.2 °F 66.2 °F 100% 29.95 in 0.5 mi Calm Calm - N/A Fog Fog
7:36 AM 66.2 °F 66.2 °F 100% 29.95 in 0.5 mi Calm Calm - N/A Fog Fog
7:38 AM 66.2 °F 66.2 °F 100% 29.95 in 0.8 mi Calm Calm - N/A   Clear
7:40 AM 64.4 °F 64.4 °F 100% 29.96 in 1.0 mi Calm Calm - N/A   Clear
7:41 AM 64.4 °F 64.4 °F 100% 29.96 in 1.2 mi Calm Calm - N/A   Clear
7:42 AM 64.4 °F 64.4 °F 100% 29.96 in 1.5 mi Calm Calm - N/A   Clear
7:43 AM 64.4 °F 64.4 °F 100% 29.96 in 2.0 mi Calm Calm - N/A   Clear
7:44 AM 64.4 °F 64.4 °F 100% 29.96 in 3.0 mi Calm Calm - N/A   Clear
7:52 AM 64.4 °F 64.4 °F 100% 29.96 in 2.5 mi Calm Calm - N/A   Clear
7:53 AM 64.4 °F 64.4 °F 100% 29.96 in 1.5 mi Calm Calm - N/A   Clear
7:54 AM 64.4 °F 64.4 °F 100% 29.96 in 1.0 mi Calm Calm - N/A   Clear
7:55 AM 65.3 °F 65.3 °F 100% 29.96 in 0.8 mi Calm Calm - N/A   Clear
7:57 AM 66.2 °F 66.2 °F 100% 29.96 in 0.5 mi Calm Calm - N/A Fog Fog
8:00 AM 66.2 °F 66.2 °F 100% 29.96 in 0.5 mi Calm Calm - N/A Fog Fog
8:01 AM 66.2 °F 66.2 °F 100% 29.96 in 0.5 mi Calm Calm - N/A Fog Fog
8:02 AM 66.2 °F 66.2 °F 100% 29.96 in 0.5 mi Calm Calm - N/A Fog Fog
8:05 AM 66.2 °F 66.2 °F 100% 29.96 in 0.8 mi Calm Calm - N/A   Clear
8:08 AM 66.2 °F 66.2 °F 100% 29.96 in 1.0 mi Calm Calm - N/A   Clear
8:10 AM 66.2 °F 66.2 °F 100% 29.96 in 1.2 mi Calm Calm - N/A   Clear
8:11 AM 66.2 °F 66.2 °F 100% 29.96 in 1.8 mi Calm Calm - N/A   Clear
8:12 AM 66.2 °F 66.2 °F 100% 29.96 in 2.0 mi Calm Calm - N/A   Clear
8:16 AM 66.2 °F 66.2 °F 100% 29.96 in 3.0 mi Calm Calm - N/A   Clear
8:55 AM 69.6 °F 69.6 °F 100% 29.97 in 10.0 mi SSW 3.5 mph - N/A   Clear
9:55 AM 74.8 °F 74.8 °F 100% 29.99 in 10.0 mi West 10.4 mph - N/A   Clear
10:55 AM 76.5 °F 76.5 °F 100% 30.00 in 10.0 mi West 11.5 mph - N/A   Clear
11:55 AM 74.5 °F 74.1 °F 99% 30.00 in 10.0 mi West 10.4 mph - N/A   Partly Cloudy
12:55 PM 74.1 °F 74.1 °F 100% 29.97 in 10.0 mi WNW 9.2 mph - N/A   Clear
1:55 PM 76.1 °F 73.2 °F 91% 29.95 in 10.0 mi NW 6.9 mph - N/A   Clear
2:55 PM 74.5 °F 73.0 °F 95% 29.96 in 10.0 mi NW 8.1 mph - N/A   Clear
3:19 PM 75.2 °F 73.4 °F 94% 29.96 in 10.0 mi NW 8.1 mph - N/A Rain Light Rain
3:33 PM 73.4 °F 73.4 °F 100% 29.96 in 10.0 mi WNW 9.2 mph - N/A   Clear
3:55 PM 73.8 °F 73.0 °F 98% 29.96 in 10.0 mi WNW 10.4 mph - 0.00 in   Scattered Clouds
4:05 PM 73.4 °F 73.4 °F 100% 29.97 in 10.0 mi West 10.4 mph - N/A   Light Drizzle
4:16 PM 73.4 °F 73.4 °F 100% 29.97 in 10.0 mi West 9.2 mph - N/A   Partly Cloudy
4:23 PM 73.4 °F 73.4 °F 100% 29.97 in 10.0 mi West 10.4 mph - N/A   Light Drizzle
4:55 PM 71.8 °F 71.4 °F 99% 29.96 in 10.0 mi West 3.5 mph - 0.02 in Rain Light Rain
5:11 PM 71.6 °F 71.6 °F 100% 29.94 in 10.0 mi Calm Calm - N/A   Clear
5:22 PM 71.6 °F 71.6 °F 100% 29.94 in 10.0 mi Calm Calm - N/A   Light Drizzle
5:43 PM 71.6 °F 71.6 °F 100% 29.95 in 10.0 mi Calm Calm - N/A   Partly Cloudy
5:55 PM 71.4 °F 71.4 °F 100% 29.94 in 10.0 mi South 3.5 mph - 0.01 in   Partly Cloudy
6:55 PM 70.5 °F 70.5 °F 100% 29.98 in 10.0 mi Calm Calm - N/A   Partly Cloudy
7:52 PM 69.8 °F 69.8 °F 100% 30.01 in 4.0 mi Calm Calm - N/A   Clear
7:53 PM 69.8 °F 69.8 °F 100% 30.00 in 3.0 mi Calm Calm - N/A   Clear
7:54 PM 69.8 °F 69.8 °F 100% 30.00 in 4.0 mi Calm Calm - N/A   Clear
7:55 PM 69.6 °F 69.6 °F 100% 30.00 in 4.0 mi Calm Calm - N/A   Clear
8:20 PM 69.8 °F 69.8 °F 100% 30.01 in 6.0 mi Calm Calm - N/A   Partly Cloudy
8:25 PM 69.8 °F 69.8 °F 100% 30.01 in 4.0 mi Calm Calm - N/A   Partly Cloudy
8:34 PM 69.8 °F 69.8 °F 100% 30.01 in 2.5 mi Calm Calm - N/A   Partly Cloudy
8:37 PM 69.8 °F 69.8 °F 100% 30.01 in 1.8 mi Calm Calm - N/A   Partly Cloudy
8:39 PM 69.8 °F 69.8 °F 100% 30.01 in 1.2 mi Calm Calm - N/A   Scattered Clouds
8:41 PM 69.8 °F 69.8 °F 100% 30.01 in 1.0 mi Calm Calm - N/A   Mist
8:45 PM 69.8 °F 69.8 °F 100% 30.01 in 1.0 mi Calm Calm - N/A   Mostly Cloudy
8:46 PM 69.8 °F 69.8 °F 100% 30.01 in 1.0 mi Calm Calm - N/A   Mostly Cloudy
8:47 PM 69.8 °F 69.8 °F 100% 30.01 in 1.2 mi Calm Calm - N/A   Mostly Cloudy
8:48 PM 69.8 °F 69.8 °F 100% 30.01 in 1.2 mi Calm Calm - N/A   Mostly Cloudy
8:49 PM 69.8 °F 69.8 °F 100% 30.01 in 1.5 mi Calm Calm - N/A   Mostly Cloudy
8:50 PM 69.8 °F 69.8 °F 100% 30.02 in 2.0 mi Calm Calm - N/A   Mostly Cloudy
8:52 PM 69.8 °F 69.8 °F 100% 30.02 in 4.0 mi Calm Calm - N/A   Mostly Cloudy
8:55 PM 69.3 °F 69.3 °F 100% 30.02 in 9.0 mi Calm Calm - 0.00 in   Light Drizzle
9:05 PM 69.8 °F 69.8 °F 100% 30.02 in 10.0 mi Calm Calm - N/A   Overcast
9:18 PM 69.8 °F 69.8 °F 100% 30.02 in 10.0 mi East 3.5 mph - N/A   Light Drizzle
9:27 PM 69.8 °F 69.8 °F 100% 30.01 in 10.0 mi East 4.6 mph - N/A   Mostly Cloudy
9:55 PM 70.7 °F 70.7 °F 100% 30.04 in 10.0 mi Calm Calm - 0.00 in   Mostly Cloudy
10:21 PM 71.6 °F 71.6 °F 100% 30.04 in 10.0 mi SE 3.5 mph - N/A   Overcast
10:55 PM 71.8 °F 71.8 °F 100% 30.04 in 10.0 mi South 3.5 mph - N/A   Overcast
11:18 PM 71.6 °F 71.6 °F 100% 30.02 in 10.0 mi South 4.6 mph - N/A   Scattered Clouds
11:55 PM 70.7 °F 70.7 °F 100% 30.02 in 10.0 mi SSW 6.9 mph - N/A   Partly Cloudy